GFSCGP_sfc_rhum_027.txt.gz
RH
9 8 6 5 6 7 8 8 7 6 8 10 9 10 9 13 16 21 27 39 40 39 36 37 39 40 41 43 49 55 88 98 98 96 59 54 54 60 48 48 56 58 62 65
10 8 6 7 7 7 6 7 8 6 9 10 9 10 8 11 14 16 22 32 37 35 37 39 44 45 50 51 53 62 84 88 95 97 86 60 62 48 46 54 63 64 63 64
8 8 8 8 7 7 6 7 7 10 10 8 9 12 10 10 12 16 18 21 30 31 39 41 43 45 45 52 56 68 74 69 68 77 78 72 58 62 56 48 45 62 59 68
8 6 9 8 8 7 8 7 7 8 9 9 10 11 13 10 11 17 18 20 22 31 36 39 41 48 48 49 52 58 62 69 66 66 75 73 58 50 48 49 51 55 60 68
10 9 9 9 7 7 9 9 9 9 10 10 9 9 10 10 10 12 13 18 21 28 33 35 37 45 48 44 49 55 62 66 67 70 70 57 59 47 45 47 58 63 61 58
10 8 8 8 7 8 8 10 10 10 9 11 10 9 9 9 13 11 15 18 21 25 32 34 36 42 46 43 47 50 63 73 76 68 64 65 65 63 54 59 50 47 41 50
11 9 7 8 10 9 10 11 14 16 13 12 12 10 11 9 9 12 14 17 21 24 31 35 40 46 52 48 47 51 64 79 73 64 62 62 65 62 66 60 52 61 49 55
12 12 9 8 9 11 11 11 12 20 14 18 12 13 14 11 8 12 18 18 20 24 28 32 37 42 46 46 47 48 62 79 72 61 64 64 58 49 46 60 57 50 60 62
11 11 8 8 8 8 10 13 8 12 11 11 9 9 9 10 9 12 18 21 23 26 27 29 30 40 42 44 46 45 60 78 63 61 66 66 64 65 63 65 64 54 70 64
10 14 8 8 8 8 9 8 12 10 21 20 12 13 12 15 11 21 27 25 27 27 26 28 34 38 39 39 44 48 61 62 60 58 59 58 61 61 63 66 63 72 74 80
8 12 11 10 11 10 11 11 11 8 12 19 18 24 28 14 11 14 23 26 31 30 28 31 35 38 37 39 43 48 52 56 55 53 55 58 55 57 63 64 60 67 78 81
9 11 14 10 6 7 9 11 11 13 20 13 14 12 11 11 12 13 19 28 30 29 31 34 36 37 37 39 41 45 48 46 49 52 55 57 55 61 62 62 58 66 76 77
10 13 16 15 9 9 10 8 10 14 18 24 24 16 24 11 14 18 20 29 34 33 38 38 40 41 43 47 53 46 39 42 47 51 51 53 52 67 75 60 62 65 68 72
26 14 18 12 19 13 13 10 9 12 16 15 12 13 15 12 15 26 23 34 34 40 43 44 47 50 53 60 64 47 38 40 45 44 47 53 58 69 69 62 62 64 67 70
15 23 16 12 9 9 9 9 9 11 12 15 17 24 29 26 25 22 26 38 38 41 44 47 49 55 55 55 57 41 43 42 45 48 46 52 53 70 66 60 67 69 68 67
16 25 21 16 10 9 9 8 8 10 10 12 12 14 14 20 23 23 30 40 42 40 39 45 47 53 52 56 47 44 44 47 49 50 48 52 54 60 68 62 71 76 72 70
22 23 25 22 11 10 14 11 9 10 10 11 14 20 21 23 29 30 30 37 39 40 37 43 46 49 51 48 46 47 48 49 53 52 48 56 61 74 68 61 71 76 78 73
33 34 26 21 17 24 14 10 10 11 12 10 11 15 24 30 33 34 34 30 36 37 37 43 42 45 44 41 44 46 46 52 52 61 57 68 64 78 70 66 78 81 78 75
22 29 23 23 19 16 13 14 14 13 13 10 13 15 19 25 30 50 43 33 34 37 38 44 46 43 50 50 54 55 55 55 58 72 66 71 69 76 73 73 82 78 77 77
18 30 27 24 26 27 16 14 16 15 20 12 18 18 19 20 20 50 55 53 61 61 58 68 68 68 74 73 66 67 68 69 75 73 77 71 83 90 81 76 84 81 76 73
20 26 23 22 25 20 16 21 20 25 35 35 31 35 36 40 58 61 55 60 62 69 71 67 66 69 77 71 67 72 74 78 75 71 72 85 86 91 89 89 86 81 81 74
28 28 23 20 23 25 16 23 26 48 47 43 43 46 57 64 68 70 70 73 66 67 68 63 71 82 81 77 71 80 81 80 77 81 88 96 98 98 97 96 96 92 86 83
31 22 22 20 18 40 31 47 51 48 50 54 51 47 50 56 63 69 73 71 85 84 78 72 71 78 78 77 76 87 93 88 88 88 92 96 96 97 98 98 99 99 98 98
25 23 32 28 25 31 38 40 42 47 53 55 52 48 44 52 60 70 72 84 81 78 77 69 68 79 84 81 80 85 84 83 85 89 92 93 95 97 98 98 97 99 100 99
36 39 29 27 32 35 38 44 47 54 58 59 53 50 51 53 61 72 80 81 79 76 70 66 74 78 82 80 80 78 79 81 84 86 86 90 91 95 98 99 99 99 99 96
31 41 42 38 49 50 54 50 48 47 52 54 51 53 51 54 58 63 71 70 65 65 67 70 73 75 76 76 78 79 80 79 78 76 70 69 73 81 83 87 96 92 94 94

GFSCGP_sfc_rhum_030.txt.gz
RH
7 8 8 5 5 6 7 8 7 6 6 9 9 10 9 13 13 19 29 38 36 37 35 36 37 38 40 45 65 87 93 98 93 96 99 98 92 79 73 68 64 73 73 74
8 8 6 5 6 6 6 6 6 6 6 10 10 9 8 9 12 13 21 34 36 34 36 40 46 43 44 50 76 88 94 94 93 95 99 98 91 79 77 82 72 71 72 77
8 6 7 7 6 6 5 6 6 7 8 9 9 11 10 8 12 11 12 28 32 33 36 44 46 50 44 53 57 72 85 88 89 92 96 97 87 88 85 82 80 74 66 71
7 6 7 8 7 6 8 7 6 6 8 10 8 13 16 11 13 13 14 15 27 31 39 45 46 48 48 50 63 70 77 84 88 90 92 84 89 81 77 78 78 73 69 72
9 8 7 9 6 5 7 8 9 8 10 11 9 9 21 17 12 14 15 16 18 30 35 41 41 47 50 49 56 62 69 76 75 80 81 91 80 76 71 72 74 81 79 72
9 7 7 7 6 6 6 9 9 9 9 13 11 9 12 19 20 11 14 15 18 28 33 37 40 48 53 50 53 59 75 82 76 75 76 80 81 80 76 78 75 71 71 78
10 9 7 6 8 7 8 10 15 17 16 21 32 15 16 9 10 12 14 17 18 26 33 37 48 50 53 53 54 58 75 81 77 72 71 74 77 77 80 78 73 79 68 73
13 12 8 7 8 10 10 11 15 24 16 26 21 32 21 10 9 13 14 14 18 25 32 34 42 47 50 52 54 59 76 81 79 70 75 75 76 73 68 78 76 72 74 77
11 12 6 7 7 7 10 13 9 13 12 11 11 18 15 16 11 14 16 18 23 27 31 35 37 43 49 55 55 56 77 79 74 71 76 77 76 78 77 79 79 73 84 75
11 14 8 7 7 7 9 7 12 13 24 23 12 30 46 44 38 19 23 22 29 28 28 32 35 44 44 49 53 52 72 78 73 69 73 73 73 74 78 77 82 84 85 86
9 13 10 10 11 10 10 11 10 9 14 18 20 26 38 43 24 29 24 25 29 27 26 30 34 39 39 43 48 64 70 72 68 67 69 70 68 71 74 74 79 82 86 85
9 11 15 11 8 7 8 11 12 14 25 16 16 24 19 25 24 14 21 26 27 28 28 32 38 40 42 44 45 68 68 64 60 63 66 67 74 70 74 73 76 79 83 81
11 14 16 16 10 8 9 8 9 14 24 28 26 63 37 37 28 18 25 29 35 35 39 40 45 46 47 50 59 53 57 52 54 61 62 64 74 75 73 74 77 82 81 79
26 17 18 14 16 13 16 10 9 11 18 17 13 28 44 48 55 66 30 36 37 43 45 48 51 54 56 71 87 94 61 47 55 54 57 67 73 76 69 76 77 82 79 76
15 25 17 12 10 10 13 15 15 10 12 15 14 21 44 72 86 68 38 39 40 46 46 52 55 62 63 68 62 59 59 53 55 56 56 66 72 74 67 78 79 77 76 76
14 28 20 18 12 10 10 8 8 8 9 10 10 16 55 68 46 55 42 37 43 46 45 52 56 62 65 65 61 59 56 54 56 59 57 63 73 74 72 77 78 77 82 77
28 25 30 26 14 13 15 10 9 9 8 9 14 41 70 83 77 55 43 37 40 40 43 54 55 61 62 59 62 60 59 56 61 61 57 63 78 76 72 76 77 77 80 77
36 46 32 27 24 28 14 21 12 14 10 11 12 20 54 69 47 34 27 37 40 40 39 48 51 57 58 52 59 61 55 60 60 68 74 71 80 78 75 83 82 82 76 82
21 31 31 32 26 20 13 30 26 18 16 10 14 15 52 64 45 50 38 45 40 41 42 52 53 52 63 76 76 72 69 67 73 63 66 66 81 84 85 89 88 84 82 84
16 37 28 29 30 28 21 16 15 19 21 20 28 52 61 75 60 61 61 58 64 64 69 74 82 78 81 87 80 74 82 79 86 83 82 88 83 85 88 90 91 86 84 83
21 28 29 27 27 22 18 12 36 74 46 38 41 56 67 72 63 58 56 64 70 69 70 72 76 86 84 78 77 86 86 93 82 78 84 91 96 92 96 95 95 89 88 85
26 29 24 27 28 28 14 12 23 58 46 42 45 50 62 62 61 63 64 64 65 68 74 79 88 90 89 83 86 94 95 87 87 87 93 98 98 99 98 98 98 96 88 87
26 25 26 27 24 34 41 55 51 48 55 51 48 47 52 58 61 61 68 75 75 75 76 78 80 84 84 84 84 88 93 90 90 91 95 97 97 98 98 98 99 99 98 98
23 24 30 32 31 36 39 40 52 52 52 50 45 42 45 57 61 66 80 74 74 72 75 70 78 86 90 87 87 85 88 89 89 91 93 93 96 98 98 99 99 98 99 99
35 33 38 38 44 41 40 46 46 53 52 51 46 45 49 58 63 70 77 73 72 74 75 78 84 89 89 89 89 86 86 85 85 86 86 85 88 93 97 98 99 98 100 98
35 67 50 66 55 58 76 54 43 44 51 46 49 50 51 55 66 72 72 70 72 77 75 77 80 83 84 82 85 85 84 82 79 80 76 78 81 82 84 87 93 91 93 95

GFSCGP_sfc_rhum_036.txt.gz
RH
16 16 18 15 15 13 12 13 12 11 13 14 14 19 23 26 31 40 49 56 53 51 55 57 59 63 88 89 95 94 95 89 91 95 96 96 94 97 92 97 94 92 89 87
15 16 13 12 12 11 11 13 10 11 12 16 16 14 16 32 35 38 46 52 51 57 61 58 69 73 84 92 98 96 91 93 94 95 99 98 96 96 97 98 94 91 86 86
16 11 12 12 11 10 11 12 11 11 15 12 18 19 17 20 40 38 43 49 48 54 60 64 70 82 92 97 98 97 92 94 87 94 98 99 98 97 97 92 96 88 81 83
14 9 9 11 14 11 17 11 14 16 16 16 16 25 25 26 40 42 48 52 51 59 58 68 77 79 89 94 93 95 93 92 91 96 95 93 96 96 97 95 93 89 88 89
16 13 13 14 11 10 10 13 16 18 20 20 18 27 26 33 35 49 57 49 51 61 60 69 76 72 87 86 88 86 87 94 94 95 94 96 94 98 95 93 90 95 96 95
14 12 12 11 12 12 13 14 18 27 23 25 22 29 32 30 34 38 42 42 53 62 61 69 73 83 84 84 84 84 91 93 95 96 96 96 96 94 94 94 97 98 98 97
17 17 13 11 14 12 13 21 30 31 33 29 35 35 32 28 27 26 31 30 59 58 63 71 77 82 84 86 88 91 96 97 96 96 97 94 93 91 94 96 98 97 98 97
24 23 16 14 12 14 16 18 30 37 35 30 35 34 32 32 28 32 28 45 56 60 65 70 76 78 80 84 88 90 95 97 96 94 93 94 93 96 98 97 98 97 95 92
28 24 15 13 10 11 20 22 19 25 36 30 31 36 30 31 43 51 44 53 60 66 67 70 77 76 79 86 92 91 94 94 94 94 93 94 94 94 98 96 95 95 93 93
20 23 15 13 10 15 12 14 19 30 36 39 34 45 40 44 52 48 59 59 67 65 66 68 70 75 78 87 92 92 93 95 96 92 93 94 94 96 96 96 93 90 91 95
20 22 15 18 20 16 16 21 22 22 34 32 36 36 56 57 58 58 57 59 66 65 69 73 71 82 83 84 90 94 95 97 97 91 93 93 92 96 95 95 90 86 95 95
17 26 30 17 16 17 18 17 22 29 24 36 33 49 59 63 72 56 50 46 64 64 67 76 74 80 83 89 91 95 98 97 98 88 93 92 90 95 96 94 78 90 95 96
21 26 27 22 19 18 22 19 27 32 40 34 42 56 62 72 57 45 43 38 46 69 67 73 84 85 79 68 84 96 96 94 97 89 89 94 94 94 94 93 85 94 95 96
36 37 24 26 24 27 28 20 24 29 34 33 34 75 76 65 53 66 66 67 67 67 76 80 89 91 74 75 93 92 91 91 93 83 86 90 95 95 95 94 90 92 95 96
28 34 33 29 22 22 24 20 21 27 25 25 26 46 65 76 84 77 75 66 71 71 75 86 92 88 80 82 93 82 90 91 89 84 87 90 94 95 95 92 86 93 94 94
31 28 36 26 24 26 27 23 23 22 22 28 42 56 63 74 68 73 78 73 70 74 71 82 88 77 77 82 89 83 86 86 84 84 88 90 92 92 93 90 88 95 96 96
56 43 39 40 33 33 32 28 28 36 45 40 39 55 67 76 83 80 84 74 73 72 72 83 88 78 80 86 86 74 74 81 84 89 83 88 95 94 94 91 92 95 96 96
48 57 58 56 42 58 35 30 48 63 53 53 57 66 74 79 80 76 75 57 48 59 71 84 89 88 91 90 83 82 87 88 85 91 90 90 94 96 97 96 95 91 86 95
39 50 51 53 59 43 30 34 30 66 87 58 63 75 78 81 81 81 64 52 64 81 80 90 90 92 90 87 90 94 92 94 98 98 99 98 96 97 97 96 95 96 85 90
30 51 45 55 54 52 40 36 50 60 91 77 68 75 73 77 86 82 74 87 97 97 98 99 99 99 98 98 94 92 90 93 98 98 99 98 98 97 97 97 97 90 85 90
33 38 46 57 54 49 36 34 35 43 44 74 71 68 69 86 69 62 95 98 99 98 98 97 98 99 99 98 93 92 94 98 99 99 99 99 99 97 96 97 97 98 91 90
33 40 53 63 65 49 37 49 43 51 83 74 68 63 67 78 90 93 96 98 98 98 98 97 98 99 99 98 98 99 99 99 99 99 99 99 99 100 99 97 98 97 95 93
50 36 39 38 48 65 93 87 79 74 79 83 70 70 70 86 92 97 97 97 97 97 98 98 99 99 99 98 97 99 99 99 99 99 99 99 99 99 99 99 99 99 98 98
58 67 67 54 93 96 94 88 84 83 83 81 80 78 80 87 95 96 96 97 97 97 98 97 98 99 99 99 98 98 98 98 98 98 98 96 98 98 99 100 99 99 99 99
62 70 83 93 89 90 88 87 86 80 80 81 83 78 81 92 94 94 95 96 96 98 98 97 98 98 99 98 98 94 95 97 92 91 92 94 93 96 98 99 100 99 100 98
83 80 89 96 90 92 94 88 86 82 84 84 84 88 89 87 92 90 93 88 90 96 97 94 96 94 96 95 95 92 87 88 96 97 90 90 95 93 91 93 94 90 95 95

GFSCGP_sfc_rhum_042.txt.gz
RH
16 17 18 16 20 17 19 20 19 14 12 21 25 24 29 55 56 60 63 69 67 65 66 73 87 87 92 94 95 97 97 96 96 97 98 97 96 93 93 96 97 93 90 91
16 18 15 16 17 20 23 23 12 13 13 17 21 25 39 54 53 53 56 62 64 68 71 85 95 92 94 96 97 98 96 95 94 95 98 97 97 95 94 97 97 93 90 90
18 15 15 15 18 18 15 13 14 17 16 18 21 21 22 30 31 39 56 58 62 65 70 86 94 98 94 97 96 95 94 91 91 94 97 97 96 95 96 97 97 94 92 92
17 14 15 18 14 13 22 12 16 22 20 17 21 22 26 33 36 52 59 62 62 65 70 81 94 99 97 95 93 91 92 92 92 94 93 90 94 96 98 98 97 94 91 89
16 19 19 19 16 11 13 16 21 21 23 25 22 26 25 32 43 62 72 65 63 66 70 78 90 94 95 95 95 94 93 94 94 94 93 95 93 97 97 97 96 94 94 92
17 15 15 14 15 12 14 15 21 32 26 21 26 30 28 35 36 38 69 64 67 70 81 92 97 95 97 94 93 93 94 94 95 94 94 93 96 96 97 96 95 94 96 95
20 18 17 15 16 17 15 21 28 26 34 28 39 41 33 33 41 42 52 66 70 74 86 95 97 96 97 95 92 89 92 92 94 92 91 94 96 94 95 95 94 96 97 97
24 21 19 16 16 18 20 19 27 26 34 33 37 36 31 38 47 58 48 65 72 79 83 91 94 93 93 90 90 86 91 90 92 88 91 96 95 95 95 93 95 97 98 96
28 25 19 17 15 14 25 21 22 35 43 34 34 34 32 38 52 62 75 77 78 81 81 91 92 93 94 91 92 89 91 92 93 92 96 97 96 95 94 94 94 95 95 92
22 24 20 16 15 17 20 18 24 32 38 43 36 41 42 46 47 58 78 82 87 87 85 86 91 93 94 94 96 96 94 97 97 94 93 94 96 94 93 93 95 95 95 95
23 21 20 21 24 20 21 24 29 30 33 33 34 31 42 43 49 68 76 77 84 87 84 88 91 93 95 94 94 97 97 98 98 98 96 95 95 93 92 94 94 95 96 95
20 22 26 18 20 23 23 22 25 31 30 44 38 30 36 62 61 69 69 68 69 72 82 88 90 94 97 95 96 97 97 98 99 99 97 97 94 92 92 94 94 94 96 95
22 28 29 23 22 25 26 31 31 35 40 47 37 30 66 73 74 70 68 70 75 75 79 88 92 95 96 97 97 96 96 95 95 97 96 97 95 91 94 95 94 94 94 93
32 30 26 26 23 25 30 28 30 31 36 39 36 29 31 65 66 66 69 75 74 73 84 91 94 95 96 97 98 93 93 86 92 96 94 96 96 92 92 94 94 93 92 92
27 24 30 30 22 24 23 26 27 31 31 30 32 33 32 50 72 72 78 74 70 67 90 93 94 95 92 93 94 93 92 87 92 94 93 95 95 93 92 93 94 92 92 91
41 40 38 41 32 26 28 30 29 31 30 40 46 42 46 73 75 74 70 73 74 73 74 89 93 91 88 91 90 93 92 92 93 94 94 94 95 95 92 94 92 92 92 91
52 39 33 39 43 26 33 34 40 57 61 42 43 37 75 74 70 68 72 80 77 70 77 86 93 91 92 91 90 92 90 92 93 95 95 96 97 96 96 95 92 92 93 92
59 68 55 54 41 32 29 62 50 57 67 66 69 64 74 76 74 80 81 76 84 96 91 81 94 93 90 91 93 92 92 94 94 97 98 97 97 97 98 98 98 96 92 92
51 57 61 48 52 40 57 58 52 46 46 69 72 77 71 73 68 73 80 85 95 94 92 98 95 92 88 87 91 92 95 96 96 98 98 97 95 97 97 99 99 98 96 90
30 48 47 56 50 50 39 42 56 47 50 60 77 76 71 78 72 77 86 94 95 94 96 97 97 91 90 94 95 96 96 97 98 98 97 96 94 92 97 98 99 99 96 89
34 44 49 62 52 44 39 42 56 41 42 61 71 76 82 79 73 92 95 97 97 98 99 98 98 99 100 95 95 96 96 98 98 97 98 98 99 98 97 98 98 98 97 90
37 42 44 61 56 43 83 49 40 41 56 59 72 81 85 88 97 97 96 98 98 98 98 98 98 99 99 96 96 99 98 99 99 98 99 99 99 99 99 98 99 98 98 95
52 47 53 44 45 69 97 96 92 83 80 83 69 73 74 86 98 98 98 98 97 98 98 98 98 99 99 99 97 99 100 98 98 99 99 99 99 99 99 99 99 99 98 98
65 77 76 86 83 91 94 89 90 92 88 84 75 73 73 90 97 98 98 98 98 97 98 97 94 98 99 99 99 99 99 98 97 99 99 99 99 99 99 100 99 99 99 99
60 77 90 87 89 89 84 91 94 92 90 92 90 86 91 94 97 97 99 99 98 98 97 96 95 98 99 98 98 97 94 92 93 93 94 97 98 99 99 100 100 100 100 98
87 75 84 90 85 91 90 91 94 94 96 89 93 96 92 91 95 95 97 96 96 96 94 93 92 94 96 95 95 93 90 89 93 95 95 96 98 98 98 99 99 95 98 100

GFSCGP_sfc_rhum_045.txt.gz
RH
13 8 7 11 11 11 12 12 13 12 9 13 17 17 16 40 41 42 46 53 51 48 46 50 54 59 64 70 79 86 89 90 92 79 80 80 97 77 89 78 79 85 80 70
10 9 10 11 12 11 13 13 10 11 11 12 14 14 18 36 39 37 42 46 47 45 55 55 63 65 71 74 80 85 88 90 88 72 76 80 95 88 71 90 94 85 77 71
10 9 11 11 12 11 10 9 10 13 13 13 14 14 17 21 37 32 38 41 43 44 52 62 66 69 68 76 82 82 86 86 80 81 82 84 86 77 79 87 90 81 73 74
11 10 10 12 12 9 12 9 8 13 12 12 17 12 22 18 19 30 39 36 40 43 49 60 65 72 72 72 76 80 80 80 81 84 83 80 75 82 84 80 74 70 72 71
10 12 12 12 12 10 12 10 13 14 15 15 15 12 15 23 24 22 38 39 36 39 47 54 60 66 72 73 74 74 78 80 80 83 80 80 78 74 71 71 80 81 78 76
12 11 11 10 11 10 14 12 17 19 14 12 22 19 15 19 24 26 25 43 41 43 48 52 60 71 77 74 79 72 81 81 80 82 81 85 88 81 75 76 69 68 69 69
13 12 11 12 12 11 12 13 16 15 14 14 27 24 22 20 26 33 33 31 43 47 54 62 70 71 79 75 72 73 79 81 78 78 79 84 84 84 83 77 69 72 66 68
13 13 12 12 12 13 13 14 15 20 16 17 27 22 17 24 33 44 38 33 43 48 52 60 62 65 70 71 71 72 77 78 79 75 85 86 82 70 68 75 71 69 69 70
18 15 14 13 11 12 17 16 14 24 28 18 19 21 20 27 35 43 48 54 52 53 54 61 65 66 71 68 69 68 75 73 75 75 86 90 83 78 77 81 78 69 76 68
17 17 12 13 11 14 15 15 16 19 30 24 21 26 20 25 30 40 52 54 59 59 60 63 68 71 70 64 66 67 68 74 76 76 91 91 84 79 80 78 80 80 79 80
14 17 15 15 15 15 16 15 21 18 23 19 20 16 26 30 32 38 50 53 57 62 63 66 72 72 68 61 67 75 82 91 97 95 96 95 83 77 77 77 78 79 79 80
14 17 18 14 14 14 14 17 20 17 34 28 21 14 24 29 37 43 45 52 54 55 62 69 71 80 73 65 74 86 88 94 96 96 97 91 75 74 76 77 78 77 80 78
19 23 19 18 16 17 18 17 22 30 31 34 20 16 33 43 45 45 47 54 53 54 59 69 77 80 72 70 93 85 86 87 86 96 93 80 74 74 77 77 77 76 76 74
30 29 26 14 19 21 24 21 20 21 23 28 18 19 20 27 42 46 50 49 46 53 65 68 77 81 76 79 87 82 80 74 80 83 81 80 76 74 73 77 77 77 75 74
24 28 24 18 16 17 17 18 20 22 23 17 20 22 20 36 46 53 48 47 47 50 67 71 76 82 80 84 85 76 70 71 70 75 71 79 78 74 74 76 76 76 75 74
31 34 27 24 19 16 18 19 20 20 21 22 21 24 38 53 52 52 51 47 51 52 53 70 74 78 79 83 83 77 71 68 69 75 77 80 81 78 77 78 77 77 76 76
37 36 33 28 27 22 24 21 20 23 21 22 23 29 43 55 52 51 54 51 50 48 53 60 73 74 77 79 82 81 74 65 69 73 84 88 89 88 81 78 77 77 78 78
51 51 42 34 29 30 25 41 30 31 32 34 39 45 49 55 57 60 62 54 67 78 76 60 71 75 76 74 73 72 73 72 69 86 92 89 92 90 85 86 88 89 78 79
43 45 46 35 26 30 30 42 35 30 24 38 41 50 50 53 47 61 68 75 85 90 91 93 87 75 75 74 72 73 75 77 80 93 98 92 94 94 92 91 97 98 88 78
30 49 29 40 27 29 32 32 35 33 28 40 47 45 48 52 38 49 72 86 90 95 96 97 87 80 77 81 77 78 76 76 79 91 96 92 93 95 86 94 96 96 89 77
33 39 34 36 33 29 33 36 35 30 32 35 48 48 53 47 52 79 79 87 92 96 96 96 96 94 89 80 81 81 83 86 90 96 96 90 90 90 90 98 98 99 97 79
30 33 36 39 36 31 70 42 31 52 56 54 56 58 63 70 83 86 85 86 87 94 94 95 97 97 96 89 83 95 98 95 92 92 90 89 90 95 96 95 99 99 97 95
37 44 36 34 32 70 81 80 75 76 68 58 57 58 63 73 85 86 87 85 84 92 93 89 90 95 95 94 94 96 98 94 93 96 96 95 96 96 97 99 99 99 98 96
50 58 52 58 71 74 75 70 74 77 69 63 55 56 56 69 84 87 86 84 86 86 90 84 84 86 92 92 96 96 95 90 90 95 97 97 99 99 100 100 99 99 98 98
40 57 67 68 67 71 68 76 82 75 72 68 65 62 64 75 85 84 84 88 88 83 81 78 82 87 90 90 91 90 90 89 90 92 92 94 95 99 99 100 100 99 98 97
53 56 49 63 70 77 75 79 77 75 71 68 68 73 70 67 72 73 74 77 80 77 78 79 79 80 82 84 84 85 83 84 85 84 86 92 96 99 98 99 99 98 99 100

GFSCGP_sfc_rhum_048.txt.gz
RH
8 7 10 10 10 9 10 11 10 7 7 9 11 12 10 17 21 23 29 34 34 33 32 35 41 44 46 54 63 72 77 77 74 60 62 92 96 96 56 89 72 71 65 72
7 6 7 8 8 9 11 11 9 8 9 11 11 12 11 13 20 21 26 31 33 30 33 36 44 46 50 55 64 76 79 82 77 60 62 60 79 61 77 64 67 65 66 60
5 6 6 8 8 10 10 10 8 8 9 8 10 12 12 15 20 22 22 26 29 30 33 40 44 48 47 55 64 70 80 77 74 71 64 71 71 64 57 61 61 66 63 63
5 5 7 7 7 8 9 7 7 7 8 9 9 10 12 9 11 16 19 21 26 30 32 39 44 50 50 53 59 66 76 75 72 72 67 72 58 60 64 60 62 62 65 60
6 6 7 8 6 7 8 6 7 8 8 9 9 9 10 12 14 15 20 23 23 27 31 35 40 46 51 53 60 65 72 73 69 71 66 62 66 60 60 57 69 73 68 62
7 8 7 6 9 8 8 10 10 9 7 10 12 10 8 10 16 16 16 28 26 26 30 34 40 49 56 55 58 60 73 76 70 68 68 74 75 73 68 75 55 52 50 52
8 8 6 8 9 9 8 9 11 12 10 10 16 13 11 14 16 20 22 23 28 29 32 38 49 55 58 58 57 59 70 75 67 66 68 73 76 74 72 69 56 56 48 50
9 9 8 8 9 9 9 8 10 18 12 10 17 14 13 15 17 24 27 24 29 32 34 39 46 49 50 52 56 58 69 71 66 64 70 78 73 60 60 64 54 52 50 52
9 8 7 8 8 9 12 12 8 12 12 10 9 12 10 16 19 25 28 33 37 39 38 43 44 44 47 53 57 57 67 66 64 63 75 78 75 69 64 67 65 54 62 57
10 12 7 10 9 10 11 8 12 10 18 19 13 14 12 14 17 26 33 39 44 42 43 45 44 45 48 49 53 54 61 65 65 64 79 81 77 70 69 66 66 66 67 69
8 12 11 12 12 10 12 12 12 10 14 14 16 13 13 15 21 29 36 38 41 42 42 46 45 45 43 44 49 55 63 71 80 91 98 98 88 70 66 64 62 64 67 70
8 10 12 9 10 10 10 12 12 13 25 13 16 12 11 17 26 27 35 39 42 43 44 48 50 51 47 47 49 70 83 86 92 92 98 94 73 63 65 64 63 65 69 68
10 12 15 13 10 12 12 11 13 14 20 20 15 14 17 23 26 30 38 39 42 43 50 52 54 56 52 53 63 75 78 79 78 85 81 76 61 60 65 62 62 64 64 62
25 12 18 10 12 9 18 15 14 16 16 17 13 14 14 18 24 34 39 39 36 38 45 52 59 59 56 63 64 71 73 59 65 76 74 67 59 61 62 66 62 63 62 61
14 20 15 10 8 11 11 12 12 16 13 15 13 13 21 31 32 35 34 36 34 38 44 50 58 62 60 70 63 60 60 58 61 68 67 65 60 60 63 64 62 61 62 61
16 21 15 12 8 8 11 12 14 14 16 16 12 16 28 33 35 37 37 34 36 38 44 53 57 60 62 65 63 62 58 57 56 59 66 70 67 63 67 66 64 64 65 64
24 19 25 15 11 10 14 12 13 13 13 12 15 26 28 38 38 37 37 35 36 36 40 48 56 59 62 62 63 64 61 54 60 60 68 76 75 69 71 66 64 65 67 67
33 34 22 13 23 23 14 17 10 13 14 15 23 36 35 38 38 42 44 39 52 61 53 45 50 57 58 58 64 61 59 56 56 62 76 80 83 89 86 81 73 79 75 69
28 28 24 26 20 17 23 26 22 22 19 22 19 37 36 38 41 50 50 57 64 67 73 77 69 59 60 59 61 60 61 58 56 64 84 88 85 87 88 86 83 84 83 76
27 39 24 23 21 24 25 26 25 22 26 31 31 34 36 38 32 40 53 75 79 81 86 90 74 63 63 65 65 66 63 59 58 67 78 83 82 80 78 90 84 82 86 80
24 24 21 22 21 25 30 28 22 26 34 31 34 33 34 38 48 55 58 74 76 84 91 86 80 70 68 68 66 66 63 63 66 80 73 77 80 82 76 91 96 94 87 76
24 22 19 25 24 30 44 28 27 54 44 39 35 37 40 51 50 52 54 60 64 71 80 86 90 89 84 72 70 71 73 88 84 90 90 85 80 74 67 80 89 94 94 83
28 38 24 30 30 59 54 57 57 58 56 47 42 40 43 46 48 50 55 61 61 67 70 72 75 84 87 88 77 87 91 86 84 78 78 77 78 80 82 93 89 94 96 79
42 43 30 40 53 52 60 58 61 60 56 48 42 42 42 46 50 54 60 62 62 66 67 63 63 76 85 85 88 88 86 86 83 86 88 86 87 92 96 97 98 98 98 90
31 41 45 38 51 51 57 63 67 60 56 53 46 43 45 48 54 57 64 67 66 66 65 64 69 75 81 83 85 85 86 85 85 84 82 86 93 98 99 100 100 99 98 98
28 39 29 38 57 57 61 65 62 58 56 51 49 51 50 50 54 56 59 62 62 62 63 65 67 72 75 77 77 79 79 78 79 78 71 67 76 94 96 99 99 99 99 100